TIANYAN 01

Last updated on Wed Sep 17 2025 00:03:09 GMT+0000 (Coordinated Universal Time)

1 44881U 19093C 25259.63199924 .00000831 00000+0 10170-3 0 9996 2 44881 97.7851 333.1853 0012303 265.8205 94.1604 14.85791629310782
UTC large
Height (km)
Speed (km/s)
/
Latitude / Longitude
Inclination (degrees)
Orbital Period (minutes)
Azimuth
Elevation
Range (km)
Doppler Factor

Next 0 passes for location: London (51.5072 / 0.1276)

Sorry there are no passes over London.